This is the latest recevied weather packets stored in our database for station/object NC4J. If no packets are shown the sender has not sent any weather packets the latest 10 day(s).
| Time | Temp. | Humidity | Pressure | Rain* | Wind** | Luminosity | Snow |
|---|---|---|---|---|---|---|---|
| 1777726876 | 10° C | 64% | 1014.7 hPa | 0 mm | - | 36 W/m² | - |
| 1777726571 | 10° C | 63% | 1014.6 hPa | 0 mm | - | 41 W/m² | - |
| 1777726269 | 10° C | 65% | 1014.8 hPa | 0 mm | - | 40 W/m² | - |
| 1777725966 | 10° C | 65% | 1014.4 hPa | 0 mm | - | 48 W/m² | - |
| 1777725663 | 10° C | 66% | 1014.6 hPa | 0 mm | - | 44 W/m² | - |
| 1777725361 | 10° C | 65% | 1014.2 hPa | 0 mm | - | 46 W/m² | - |
| 1777725058 | 10° C | 66% | 1014.4 hPa | 0 mm | - | 47 W/m² | - |
| 1777724754 | 10° C | 65% | 1014.5 hPa | 0 mm | - | 26 W/m² | - |
| 1777724452 | 10° C | 67% | 1014.4 hPa | 0 mm | - | 25 W/m² | - |
| 1777724149 | 10° C | 66% | 1014.7 hPa | 0 mm | - | 19 W/m² | - |
| 1777723846 | 10° C | 67% | 1014.5 hPa | 0 mm | - | 17 W/m² | - |
| 1777723542 | 10° C | 68% | 1014.4 hPa | 0 mm | - | 23 W/m² | - |
| 1777723240 | 10° C | 68% | 1014.2 hPa | 0 mm | - | 22 W/m² | - |
| 1777722938 | 10° C | 68% | 1013.8 hPa | 0 mm | - | 23 W/m² | - |
| 1777722633 | 10° C | 68% | 1013.9 hPa | 0 mm | - | 17 W/m² | - |
| 1777722330 | 10° C | 70% | 1013.9 hPa | 0 mm | - | 21 W/m² | - |
| 1777722027 | 10° C | 68% | 1014 hPa | 0 mm | - | 13 W/m² | - |
| 1777721724 | 10° C | 70% | 1014.1 hPa | 0 mm | - | 6 W/m² | - |
| 1777721423 | 10° C | 70% | 1013.9 hPa | 0 mm | - | 5 W/m² | - |
| 1777721120 | 10° C | 70% | 1013.6 hPa | 0 mm | - | 6 W/m² | - |
| 1777720818 | 10° C | 68% | 1013.4 hPa | 0 mm | - | 7 W/m² | - |
| 1777720515 | 10° C | 69% | 1013.4 hPa | 0 mm | - | 5 W/m² | - |
| 1777720212 | 10° C | 69% | 1013.3 hPa | 0 mm | - | 7 W/m² | - |
| 1777719909 | 10° C | 69% | 1013.6 hPa | 0 mm | - | 5 W/m² | - |
| 1777719607 | 10° C | 69% | 1013.7 hPa | 0 mm | - | 6 W/m² | - |
* Rain latest hour (hover to see other rain measurements)
** Current wind speed in m/s (hover to see current wind gust speed)